Location: Mount Cross
(36.6390°N, 79.4878°W)
Time: 18:06:29
(UTC+00:00)

Courier 1B Rocket - Pass Details

Date: 24 March 2023
Orbit: 920 x 1202 km, 28.2° (Epoch: 08 June)

Event Time Altitude Azimuth Distance (km) Brightness Sun altitude
Rises 03:03:56 0° 248° (WSW) 3,731 8.3 -40.0°
Enters shadow 03:06:30 - 242° (WSW) 2,853 7.6 -40.4°
Reaches altitude 10° 03:06:51 10° 241° (WSW) 2,738 - -40.4°
Maximum altitude 03:12:51 38° 175° (S) 1,405 - -41.3°
Drops below altitude 10° 03:18:36 10° 109° (ESE) 2,620 - -42.1°
Sets 03:21:20 0° 101° (E) 3,551 - -42.5°
